Weather History for KJAC - January, 2015

Change the Weather History Date:

Friday, January 2, 2015

  Actual Average Record
Temperature  
Mean Temperature -3 °F -  
Max Temperature 10 °F 21 °F 45 °F (1981)
Min Temperature -16 °F -4 °F -42 °F (1979)
Degree Days  
Heating Degree Days 68    
Moisture  
Dew Point -6 °F    
Average Humidity 88    
Maximum Humidity 92    
Minimum Humidity 79    
Precipitation  
Precipitation 0.00 in - - ()
Sea Level Pressure  
Sea Level Pressure 30.06 in    
Wind  
Wind Speed 5 mph (North)    
Max Wind Speed 10 mph    
Max Gust Speed -    
Visibility 9 miles    
Events      
Averages and records for this station are not official NWS values.
T = Trace of Precipitation, MM = Missing Value Source: NWS Daily Summary

Daily Weather History Graph

Daily Weather History Graph

Search for Another Location

Airport or City:

Trip Planner

Search our weather history database for the weather conditions in past years. The results will help you decide how hot, cold, wet, or windy it might be!

Date:

Astronomy

Jan. 02, 2015 Rise Set
Actual Time 7:56 AM MST 4:57 PM MST
Civil Twilight 7:23 AM MST 5:30 PM MST
Nautical Twilight 6:47 AM MST 6:06 PM MST
Astronomical Twilight 6:12 AM MST 6:41 PM MST
Moon 3:21 PM MST (1/2) 5:24 AM MST (1/2)
Length of Visible Light 10h 06m
Length of Day
9h 01m
Waxing Gibbous, 94% of the Moon is Illuminated
Jan 2
Waxing Gibbous
Jan 4
Full
Jan 13
Last Quarter
Jan 20
New
Jan 26
First Quarter

Hourly Weather History & Observations

Time (MST) Temp. Windchill Dew Point Humidity Pressure Visibility Wind Dir Wind Speed Gust Speed Precip Events Conditions
12:15 AM -11.2 °F -26.4 °F -14.8 °F 84% 30.13 in 10.0 mi North 6.9 mph - N/A   Clear
12:35 AM -11.2 °F -27.8 °F -14.8 °F 84% 30.13 in 10.0 mi North 8.1 mph - N/A   Clear
12:55 AM -11.2 °F -20.6 °F -14.8 °F 84% 30.13 in 10.0 mi NNE 3.5 mph - N/A   Clear
1:15 AM -11.2 °F -27.8 °F -14.8 °F 84% 30.13 in 10.0 mi North 8.1 mph - N/A   Clear
1:35 AM -13.0 °F -31.3 °F -14.8 °F 92% 30.13 in 10.0 mi North 9.2 mph - N/A   Clear
1:55 AM -11.2 °F -26.4 °F -14.8 °F 84% 30.13 in 10.0 mi North 6.9 mph - N/A   Clear
2:15 AM -11.2 °F -27.8 °F -14.8 °F 84% 30.13 in 10.0 mi North 8.1 mph - N/A   Clear
2:35 AM -14.8 °F -32.2 °F -16.6 °F 92% 30.13 in 10.0 mi North 8.1 mph - N/A   Clear
2:55 AM -11.2 °F -30.1 °F -14.8 °F 84% 30.13 in 10.0 mi North 10.4 mph - N/A   Clear
3:15 AM -11.2 °F -30.1 °F -14.8 °F 84% 30.13 in 10.0 mi North 10.4 mph - N/A   Clear
3:35 AM -11.2 °F -27.8 °F -14.8 °F 84% 30.13 in 10.0 mi North 8.1 mph - N/A   Clear
3:55 AM -11.2 °F -23.0 °F -14.8 °F 84% 30.13 in 10.0 mi NNE 4.6 mph - N/A   Clear
4:15 AM -13.0 °F -31.3 °F -16.6 °F 84% 30.12 in 10.0 mi North 9.2 mph - N/A   Clear
4:35 AM -14.8 °F -30.8 °F -16.6 °F 92% 30.12 in 10.0 mi North 6.9 mph - N/A   Clear
4:55 AM -13.0 °F -25.1 °F -16.6 °F 84% 30.12 in 10.0 mi NE 4.6 mph - N/A   Clear
5:15 AM -11.2 °F -20.6 °F -13.0 °F 92% 30.11 in 10.0 mi NNE 3.5 mph - N/A   Clear
5:35 AM -13.0 °F -28.6 °F -16.6 °F 84% 30.11 in 10.0 mi North 6.9 mph - N/A   Clear
5:55 AM -13.0 °F -28.6 °F -16.6 °F 84% 30.11 in 10.0 mi North 6.9 mph - N/A   Clear
6:15 AM -13.0 °F -25.1 °F -14.8 °F 92% 30.10 in 10.0 mi North 4.6 mph - N/A   Clear
6:35 AM -14.8 °F -24.8 °F -16.6 °F 92% 30.10 in 10.0 mi NNE 3.5 mph - N/A   Clear
6:51 AM -13.0 °F - -16.6 °F 84% 30.10 in 10.0 mi Calm Calm - N/A   Clear
7:58 AM -16.6 °F - -18.4 °F 92% 30.11 in 10.0 mi Calm Calm - N/A   Clear
8:51 AM -13.0 °F - -16.6 °F 84% 30.12 in 10.0 mi Calm Calm - N/A   Clear
9:51 AM -7.6 °F - -9.4 °F 92% 30.11 in 10.0 mi Calm Calm - N/A   Clear
10:51 AM -4.0 °F - -5.8 °F 92% 30.10 in 10.0 mi Calm Calm - N/A   Clear
11:51 AM -2.2 °F - -4.0 °F 92% 30.07 in 10.0 mi Calm Calm - N/A   Mostly Cloudy
12:51 PM 1.4 °F - -0.4 °F 92% 30.04 in 10.0 mi Calm Calm - N/A   Overcast
1:55 PM 3.2 °F - 1.4 °F 92% 30.01 in 10.0 mi Calm Calm - N/A   Mostly Cloudy
2:51 PM 5.0 °F - 1.4 °F 85% 29.99 in 10.0 mi Calm Calm - N/A   Mostly Cloudy
3:55 PM 6.8 °F - 3.2 °F 85% 30.00 in 10.0 mi Calm Calm - N/A   Mostly Cloudy
4:52 PM 8.6 °F - 3.2 °F 79% 29.99 in 9.0 mi Calm Calm - N/A   Overcast
5:52 PM 8.6 °F - 5.0 °F 85% 29.99 in 10.0 mi Calm Calm - N/A   Overcast
6:52 PM 8.6 °F - 3.2 °F 79% 29.98 in 10.0 mi Calm Calm - N/A   Overcast
7:52 PM 8.6 °F - 6.8 °F 92% 29.99 in 8.0 mi Calm Calm - N/A   Overcast
8:55 PM 10.4 °F - 6.8 °F 85% 29.95 in 10.0 mi Calm Calm - N/A   Overcast
9:15 PM 8.6 °F - 6.8 °F 92% 29.96 in 10.0 mi Calm Calm - N/A   Overcast
9:35 PM 10.4 °F - 6.8 °F 85% 29.96 in 8.0 mi Calm Calm - N/A   Overcast
9:55 PM 8.6 °F - 6.8 °F 92% 29.96 in 2.5 mi Calm Calm - N/A   Overcast
10:15 PM 10.4 °F - 8.6 °F 92% 29.96 in 3.0 mi Calm Calm - N/A   Overcast
10:35 PM 10.4 °F 4.0 °F 8.6 °F 92% 29.96 in 1.8 mi North 3.5 mph - N/A   Overcast
10:55 PM 10.4 °F 2.2 °F 8.6 °F 92% 29.96 in 1.8 mi North 4.6 mph - N/A   Overcast
11:15 PM 10.4 °F - 8.6 °F 92% 29.94 in 3.0 mi Calm Calm - N/A   Overcast
11:35 PM 10.4 °F - 8.6 °F 92% 29.94 in 3.0 mi Calm Calm - N/A   Overcast
11:55 PM 10.4 °F - 8.6 °F 92% 29.93 in 6.0 mi Calm Calm - N/A   Overcast